Hourly Weather Roundup
Issued by NWS Central Illinois

Home | Current Version | Previous Version | Text Only | Print | Product List | Glossary On
Versions: 1 2 3 4 5 6 7 8 9 10 11 12 13 14 15 16 17 18 19 20 21 22 23 24 25 26 27 28 29 30 31 32 33 34 35 36 37 38 39 40 41 42 43 44 45 46 47 48 49 50
000
NZUS43 KILX 231210
HWRILX

AREA WEATHER ROUNDUP
NATIONAL WEATHER SERVICE, LINCOLN IL
700 AM CDT SAT AUG 23 2014


CITY           SKY/WX    TMP DP  RH WIND       PRES   REMARKS
BLOOMINGTON    FOG       71  70  97 SE3       29.98R VSB 1/8
CHAMPAIGN      FOG       73  73 100 E5        29.97S VSB 1/4
6HR MIN TEMP:  72; 6HR MAX TEMP:  73;

DECATUR        CLEAR     75  74  96 E3        29.96R FOG
6HR MIN TEMP:  74; 6HR MAX TEMP:  77;

FLORA          CLEAR     76  75  98 S3        29.95S FOG
6HR MIN TEMP:  74; 6HR MAX TEMP:  78;

GALESBURG      FOG       73  73  97 E3        29.95S VSB 1/2
JACKSONVILLE   CLEAR     75  74  97 E3        29.95R FOG
6HR MIN TEMP:  74; 6HR MAX TEMP:  78;

LACON          MOCLDY    72  70  95 SE3       29.96R
6HR MIN TEMP:  70; 6HR MAX TEMP:  74;

LAWRENCEVILLE  PTCLDY    74  73  97 S3        29.96S FOG
6HR MIN TEMP:  74; 6HR MAX TEMP:  77;

LITCHFIELD       N/A     75  75  99 S6        29.94S FOG
$$


CITY           SKY/WX    TMP DP  RH WIND       PRES   REMARKS
LINCOLN          N/A     75  73  96 CALM      29.92R FOG
6HR MIN TEMP:  74; 6HR MAX TEMP:  77;

MACOMB         PTCLDY    72  72 100 CALM      29.97R FOG
MATTOON        FOG       75  75 100 SE7       29.95S VSB 1/4
6HR MIN TEMP:  75; 6HR MAX TEMP:  77;

MT CARMEL AP   CLEAR     77  73  88 CALM      29.96S
OLNEY-NOBLE AP CLEAR     75  75 100 CALM      29.95S FOG
PARIS          FOG       74  74 100 CALM      29.97F VSB<1/4
6HR MIN TEMP:  71; 6HR MAX TEMP:  74;

PEORIA         CLEAR     76  72  87 NE3       29.96R FOG
6HR MIN TEMP:  75; 6HR MAX TEMP:  78;

PONTIAC        PTCLDY    73  73 100 E3        29.97R FOG
RANTOUL        FOG       74  71  92 E3        29.98S VSB<1/4
6HR MIN TEMP:  72; 6HR MAX TEMP:  75;

ROBINSON       MOCLDY    75  74  97 CALM      29.97S FOG
6HR MIN TEMP:  74; 6HR MAX TEMP:  77;

SPRINGFIELD    CLEAR     77  75  93 SE3       29.94R FOG
6HR MIN TEMP:  76; 6HR MAX TEMP:  79;

TAYLORVILLE    CLOUDY    73  73 100 SE3       29.95R FOG
$$

...REGIONAL REPORTS...


CITY           SKY/WX    TMP DP  RH WIND       PRES   REMARKS
CHICAGO O`HARE FOG       73  71  93 E3        29.98R VSB 1
KANKAKEE       MOCLDY    71  71  99 CALM      29.99R FOG
MOLINE         MOCLDY    74  72  93 E5        29.94S FOG
MOUNT VERNON   PTCLDY    75  72  88 SW3       29.96S
PITTSFIELD     FOG       76  74  92 CALM      29.95R VSB 1/2
QUINCY         MOCLDY    76  75  97 S6        29.93R FOG
ROCKFORD       CLOUDY    74  71  91 E3        30.00R FOG
$$


CITY           SKY/WX    TMP DP  RH WIND       PRES   REMARKS
BURLINGTON     MOCLDY    77  76  96 E3        29.92S FOG
CEDAR RAPIDS   FOG       73  73 100 SW3       29.95R VSB 1/4
DES MOINES     TSTM      73  70  90 E12       29.89F
KIRKSVILLE     PTCLDY    77  75  93 S5        29.95R FOG
OTTUMWA        TSTM      72  71  97 MISG      29.96R VSB 1
ST LOUIS       PTCLDY    81  73  76 CALM      29.94R HX  86
$$


CITY           SKY/WX    TMP DP  RH WIND       PRES   REMARKS
TERRE HAUTE    MOCLDY    72  71  97 SE3       29.97F FOG
EVANSVILLE     PTCLDY    76  70  82 S3        29.97S
INDIANAPOLIS   NOT AVBL
LAFAYETTE      MOCLDY    71  71 100 E5        29.98S
MADISON        FOG       74  73  97 SE5       29.99R VSB 3/4
MILWAUKEE      FOG       70  68  93 NE8       29.99R VSB 1/4
$$





USA.gov is the U.S. government's official web portal to all federal, state and local government web resources and services.